Location: Brodeslavy
(49.9527°N, 13.5567°E)
Time: 15:13:59
(UTC+00:00)

Cosmos 1707 Rocket - Pass Details

Date: 17 June 2025
Orbit: 600 x 624 km, 82.5° (Epoch: 20 July)

Event Time Altitude Azimuth Distance (km) Brightness Sun altitude
Exits shadow 22:12:23 17° 214° (SW) 1,544 5.2 -15.7°
Maximum altitude 22:15:29 49° 284° (WNW) 786 4.2 -15.8°
Drops below altitude 10° 22:19:41 10° 0° (N) 1,955 7.4 -15.9°
Sets 22:21:58 0° 6° (N) 2,863 8.5 -16.0°
